AEST,Max TemperatureF,Mean TemperatureF,Min TemperatureF,Max Dew PointF,MeanDew PointF,Min DewpointF,Max Humidity, Mean Humidity, Min Humidity, Max Sea Level PressureIn, Mean Sea Level PressureIn, Min Sea Level PressureIn, Max VisibilityMiles, Mean VisibilityMiles, Min VisibilityMiles, Max Wind SpeedMPH, Mean Wind SpeedMPH, Max Gust SpeedMPH,PrecipitationIn, CloudCover, Events, WindDirDegrees
2013-4-1,66,56,46,50,45,43,93,66,31,30.12,30.06,30.01,19,9,6,15,7,,0.00,4,,316
2013-4-2,66,60,55,59,53,45,100,75,54,30.20,30.07,30.01,19,7,2,17,9,,0.12,6,Rain,228
2013-4-3,62,58,53,50,45,40,88,66,33,30.35,30.26,30.18,19,8,4,22,11,,0.00,5,Rain,180
2013-4-4,66,54,42,50,44,40,94,66,33,30.42,30.38,30.33,19,9,6,14,6,,0.01,1,,177
2013-4-5,75,62,48,55,52,46,94,72,29,30.42,30.36,30.27,19,13,6,13,8,,0.00,2,,11
2013-4-6,80,66,51,54,50,46,94,62,22,30.33,30.23,30.15,19,10,6,21,10,,0.00,2,,359
2013-4-7,79,69,59,61,52,45,100,59,23,30.25,30.16,30.09,19,9,4,23,14,25,0.08,5,Rain-Thunderstorm,346
2013-4-8,71,64,57,59,56,52,100,80,44,30.32,30.26,30.21,12,6,4,12,5,,0.00,5,,191
2013-4-9,71,62,53,57,55,52,100,81,47,30.34,30.27,30.21,12,6,2,13,5,,0.01,4,Fog,217
2013-4-10,75,62,50,56,51,48,100,73,27,30.25,30.18,30.12,16,6,0,10,7,,0.00,4,Fog,5
2013-4-11,61,58,54,57,52,43,94,79,55,30.28,30.23,30.15,19,7,5,13,7,,0.02,6,Rain,209
2013-4-12,80,64,49,57,53,46,100,70,24,30.25,30.15,30.01,16,8,3,14,5,,0.04,3,Rain,346
2013-4-13,75,68,60,52,46,41,68,44,20,30.01,29.91,29.83,19,14,6,25,17,39,0.00,,Rain,346
2013-4-14,69,62,56,57,54,50,88,75,45,29.92,29.86,29.77,19,8,6,13,6,,0.01,6,Rain,174
2013-4-15,59,56,53,57,53,48,100,89,67,30.01,29.91,29.83,19,6,2,18,8,,0.04,6,Rain,199
2013-4-16,64,56,47,50,46,41,100,69,33,30.08,30.03,29.98,19,7,6,17,8,,0.00,4,,193
2013-4-17,62,54,47,49,46,43,94,72,48,30.08,30.04,30.01,16,6,6,15,6,,0.00,6,,225
2013-4-18,60,52,45,54,46,34,100,76,39,30.24,30.12,30.04,16,5,1,23,10,32,0.08,5,Rain,216
2013-4-19,59,53,46,45,38,32,82,56,28,30.32,30.27,30.21,19,7,6,23,15,32,0.00,4,Rain,156
2013-4-20,62,52,42,45,43,41,93,70,37,30.29,30.15,30.01,19,9,6,18,9,,0.00,3,,153
2013-4-21,68,55,42,45,39,28,87,54,21,30.02,29.85,29.71,19,19,19,24,14,32,0.00,,,5
2013-4-22,64,58,51,54,49,44,94,77,41,29.80,29.73,29.65,19,7,4,25,18,36,0.16,6,Rain,3
2013-4-23,65,58,50,54,47,39,94,66,27,30.08,29.95,29.77,19,8,2,20,13,,0.00,4,Rain,260
2013-4-24,66,58,51,55,46,39,100,66,30,30.15,30.08,30.04,16,6,2,16,7,,0.12,5,Rain,307
2013-4-25,69,58,48,49,47,44,94,65,29,30.17,30.11,30.06,19,8,6,18,12,,0.00,4,,335
2013-4-26,71,64,56,52,48,45,77,58,29,30.20,30.15,30.12,6,6,6,20,12,,0.00,4,,311
2013-4-27,77,66,55,52,46,32,77,49,14,30.15,29.98,29.83,19,7,6,28,18,37,0.00,5,,359
2013-4-28,69,60,51,54,42,32,82,49,16,30.14,29.97,29.83,19,8,6,24,16,,0.00,6,,273
2013-4-29,64,54,44,46,43,39,93,66,31,30.33,30.22,30.09,19,10,6,13,6,,0.00,5,,297
2013-4-30,64,52,41,45,41,37,93,65,28,30.32,30.25,30.18,19,15,6,13,7,,0.00,4,,10